TimeEET,TemperatureF,Dew PointF,Humidity,Sea Level PressureIn,VisibilityMPH,Wind Direction,Wind SpeedMPH,Gust SpeedMPH,PrecipitationIn,Events,Conditions,WindDirDegrees,DateUTC
1:50 AM,51.8,50.0,94,29.95,4.3,Calm,Calm,-,N/A,,Scattered Clouds,0,2013-02-03 23:50:00
4:50 AM,51.8,50.0,94,29.92,4.3,Calm,Calm,-,N/A,,Scattered Clouds,0,2013-02-04 02:50:00
5:50 AM,51.8,50.0,94,29.95,4.3,NNW,4.6,-,N/A,,Scattered Clouds,340,2013-02-04 03:50:00
6:20 AM,51.8,50.0,94,29.95,5.0,Calm,Calm,-,N/A,,Scattered Clouds,0,2013-02-04 04:20:00
6:50 AM,51.8,50.0,94,29.95,5.0,Calm,Calm,-,N/A,,Scattered Clouds,0,2013-02-04 04:50:00
7:20 AM,51.8,50.0,94,29.95,2.5,Calm,Calm,-,N/A,,Scattered Clouds,0,2013-02-04 05:20:00
7:50 AM,51.8,50.0,94,29.95,2.5,Calm,Calm,-,N/A,,Scattered Clouds,0,2013-02-04 05:50:00
8:20 AM,50.0,48.2,94,29.95,2.5,Calm,Calm,-,N/A,,Mostly Cloudy,0,2013-02-04 06:20:00
8:50 AM,51.8,50.0,94,29.98,2.5,NNW,4.6,-,N/A,,Mostly Cloudy,340,2013-02-04 06:50:00
9:20 AM,55.4,51.8,88,29.98,2.5,Calm,Calm,-,N/A,,Mostly Cloudy,0,2013-02-04 07:20:00
9:50 AM,57.2,51.8,82,29.95,5.6,Calm,Calm,-,N/A,,Mostly Cloudy,0,2013-02-04 07:50:00
10:20 AM,59.0,51.8,77,29.95,5.6,North,4.6,-,N/A,,Partly Cloudy,10,2013-02-04 08:20:00
10:50 AM,60.8,51.8,72,29.95,5.6,North,5.8,-,N/A,,Mostly Cloudy,360,2013-02-04 08:50:00
11:20 AM,60.8,51.8,72,29.95,5.6,North,4.6,-,N/A,,Partly Cloudy,360,2013-02-04 09:20:00
12:50 PM,64.4,50.0,59,29.95,5.6,Calm,Calm,-,N/A,,Partly Cloudy,0,2013-02-04 10:50:00
1:20 PM,66.2,51.8,60,29.95,5.0,SSE,4.6,-,N/A,,Mostly Cloudy,150,2013-02-04 11:20:00
1:50 PM,64.4,53.6,68,29.92,5.0,SSW,4.6,-,N/A,,Mostly Cloudy,200,2013-02-04 11:50:00
2:20 PM,64.4,53.6,68,29.92,5.0,South,5.8,-,N/A,,Mostly Cloudy,180,2013-02-04 12:20:00
2:50 PM,64.4,53.6,68,29.92,5.0,South,5.8,-,N/A,,Partly Cloudy,180,2013-02-04 12:50:00
3:20 PM,62.6,53.6,72,29.92,5.0,SSE,5.8,-,N/A,,Partly Cloudy,160,2013-02-04 13:20:00
3:50 PM,64.4,53.6,68,29.89,5.0,Calm,Calm,-,N/A,,Partly Cloudy,0,2013-02-04 13:50:00
4:20 PM,64.4,53.6,68,29.89,5.0,Calm,Calm,-,N/A,,Partly Cloudy,0,2013-02-04 14:20:00
4:50 PM,64.4,53.6,68,29.92,5.0,Calm,Calm,-,N/A,,Mostly Cloudy,0,2013-02-04 14:50:00
5:20 PM,62.6,51.8,68,29.92,5.0,Calm,Calm,-,N/A,,Partly Cloudy,0,2013-02-04 15:20:00
5:50 PM,59.0,51.8,77,29.92,5.0,Calm,Calm,-,N/A,,Partly Cloudy,0,2013-02-04 15:50:00
6:20 PM,57.2,50.0,77,29.92,3.1,Calm,Calm,-,N/A,,Smoke,0,2013-02-04 16:20:00
6:50 PM,59.0,51.8,77,29.92,3.1,Calm,Calm,-,N/A,,Smoke,0,2013-02-04 16:50:00
7:20 PM,57.2,50.0,77,29.95,3.1,Calm,Calm,-,N/A,,Smoke,0,2013-02-04 17:20:00
7:50 PM,53.6,50.0,88,29.95,5.0,NNW,4.6,-,N/A,,Partly Cloudy,330,2013-02-04 17:50:00
10:50 PM,53.6,50.0,88,29.95,6.2,Calm,Calm,-,N/A,,Scattered Clouds,0,2013-02-04 20:50:00